Location: Newark
(41.0400°S, 62.7845°W)
Time: 00:18:21
(UTC+00:00)

Vanguard 2 - Pass Details

Date: 12 December 2021
Orbit: 554 x 2935 km, 32.9° (Epoch: 27 January)

Event Time Altitude Azimuth Distance (km) Brightness Sun altitude
Rises 07:03:10 0° 263° (W) 6,798 12.0 -13.7°
Reaches altitude 10° 07:08:02 10° 267° (W) 5,764 11.6 -13.1°
Maximum altitude 07:23:58 45° 332° (NNW) 3,146 10.2 -11.0°
Drops below altitude 10° 07:35:37 10° 39° (NE) 4,277 11.3 -9.4°
Sets 07:38:39 0° 45° (NE) 4,974 11.7 -9.0°
